Location: ??
(35.1715°N, 139.6450°E)
Time: 18:53:23
(UTC+00:00)

Meteor 1-22 Rocket - Pass Details

Date: 05 August 2024
Orbit: 786 x 940 km, 81.2° (Epoch: 18 September)

Event Time Altitude Azimuth Distance (km) Brightness Sun altitude
Exits shadow 18:12:21 21° 189° (S) 1,911 5.6 -19.0°
Maximum altitude 18:16:27 86° 277° (W) 937 4.3 -18.3°
Drops below altitude 10° 18:22:35 10° 7° (N) 2,659 7.4 -17.3°
Sets 18:25:06 0° 8° (N) 3,609 8.2 -16.9°
